Year,Month,Day,Hour,Minute,Value (Times are PST for temperature in C)
2010,08,13,00,00,15.00
2010,08,13,00,01,15.00
2010,08,13,00,02,15.00
2010,08,13,00,03,15.00
2010,08,13,00,04,15.00
2010,08,13,00,05,15.00
2010,08,13,00,06,15.00
2010,08,13,00,07,15.00
2010,08,13,00,08,15.00
2010,08,13,00,09,15.00
2010,08,13,00,10,15.00
2010,08,13,00,11,15.00
2010,08,13,00,12,15.00
2010,08,13,00,13,14.90
2010,08,13,00,14,14.90
2010,08,13,00,15,14.90
2010,08,13,00,16,14.90
2010,08,13,00,17,14.90
2010,08,13,00,18,14.90
2010,08,13,00,19,14.90
2010,08,13,00,20,14.90
2010,08,13,00,21,14.80
2010,08,13,00,22,14.80
2010,08,13,00,23,14.80
2010,08,13,00,24,14.80
2010,08,13,00,25,14.80
2010,08,13,00,26,14.80
2010,08,13,00,27,14.80
2010,08,13,00,28,14.80
2010,08,13,00,29,14.80
2010,08,13,00,30,14.80
2010,08,13,00,31,14.80
2010,08,13,00,32,14.70
2010,08,13,00,33,14.70
2010,08,13,00,34,14.70
2010,08,13,00,35,14.70
2010,08,13,00,36,14.60
2010,08,13,00,37,14.60
2010,08,13,00,38,14.60
2010,08,13,00,39,14.60
2010,08,13,00,40,14.60
2010,08,13,00,41,14.60
2010,08,13,00,42,14.60
2010,08,13,00,43,14.60
2010,08,13,00,44,14.60
2010,08,13,00,45,14.60
2010,08,13,00,46,14.60
2010,08,13,00,47,14.60
2010,08,13,00,48,14.60
2010,08,13,00,49,14.50
2010,08,13,00,50,14.50
2010,08,13,00,51,14.50
2010,08,13,00,52,14.50
2010,08,13,00,53,14.50
2010,08,13,00,54,14.40
2010,08,13,00,55,14.40
2010,08,13,00,56,14.40
2010,08,13,00,57,14.40
2010,08,13,00,58,14.30
2010,08,13,00,59,14.30
2010,08,13,01,00,14.30
2010,08,13,01,01,14.30
2010,08,13,01,02,14.20
2010,08,13,01,03,14.20
2010,08,13,01,04,14.20
2010,08,13,01,05,14.20
2010,08,13,01,06,14.20
2010,08,13,01,07,14.20
2010,08,13,01,08,14.20
2010,08,13,01,09,14.20
2010,08,13,01,10,14.20
2010,08,13,01,11,14.20
2010,08,13,01,12,14.20
2010,08,13,01,13,14.20
2010,08,13,01,14,14.20
2010,08,13,01,15,14.20
2010,08,13,01,16,14.20
2010,08,13,01,17,14.20
2010,08,13,01,18,14.20
2010,08,13,01,19,14.20
2010,08,13,01,20,14.20
2010,08,13,01,21,14.20
2010,08,13,01,22,14.20
2010,08,13,01,23,14.20
2010,08,13,01,24,14.20
2010,08,13,01,25,14.20
2010,08,13,01,26,14.20
2010,08,13,01,27,14.20
2010,08,13,01,28,14.20
2010,08,13,01,29,14.20
2010,08,13,01,30,14.20
2010,08,13,01,31,14.20
2010,08,13,01,32,14.20
2010,08,13,01,33,14.20
2010,08,13,01,34,14.20
2010,08,13,01,35,14.20
2010,08,13,01,36,14.20
2010,08,13,01,37,14.10
2010,08,13,01,38,14.10
2010,08,13,01,39,14.10
2010,08,13,01,40,14.10
2010,08,13,01,41,14.10
2010,08,13,01,42,14.10
2010,08,13,01,43,14.10
2010,08,13,01,44,14.10
2010,08,13,01,45,14.10
2010,08,13,01,46,14.10
2010,08,13,01,47,14.10
2010,08,13,01,48,14.00
2010,08,13,01,49,14.00
2010,08,13,01,50,14.00
2010,08,13,01,51,14.00
2010,08,13,01,52,14.00
2010,08,13,01,53,14.00
2010,08,13,01,54,13.90
2010,08,13,01,55,13.90
2010,08,13,01,56,13.90
2010,08,13,01,57,13.90
2010,08,13,01,58,13.90
2010,08,13,01,59,13.90
2010,08,13,02,00,13.80
2010,08,13,02,01,13.80
2010,08,13,02,02,13.80
2010,08,13,02,03,13.80
2010,08,13,02,04,13.80
2010,08,13,02,05,13.80
2010,08,13,02,06,13.80
2010,08,13,02,07,13.80
2010,08,13,02,08,13.80
2010,08,13,02,09,13.80
2010,08,13,02,10,13.80
2010,08,13,02,11,13.80
2010,08,13,02,12,13.80
2010,08,13,02,13,13.80
2010,08,13,02,14,13.70
2010,08,13,02,15,13.70
2010,08,13,02,16,13.70
2010,08,13,02,17,13.70
2010,08,13,02,18,13.70
2010,08,13,02,19,13.70
2010,08,13,02,20,13.70
2010,08,13,02,21,13.70
2010,08,13,02,22,13.70
2010,08,13,02,23,13.70
2010,08,13,02,24,13.70
2010,08,13,02,25,13.70
2010,08,13,02,26,13.70
2010,08,13,02,27,13.70
2010,08,13,02,28,13.70
2010,08,13,02,29,13.70
2010,08,13,02,30,13.70
2010,08,13,02,31,13.70
2010,08,13,02,32,13.70
2010,08,13,02,33,13.70
2010,08,13,02,34,13.70
2010,08,13,02,35,13.70
2010,08,13,02,36,13.60
2010,08,13,02,37,13.60
2010,08,13,02,38,13.60
2010,08,13,02,39,13.60
2010,08,13,02,40,13.60
2010,08,13,02,41,13.60
2010,08,13,02,42,13.60
2010,08,13,02,43,13.50
2010,08,13,02,44,13.50
2010,08,13,02,45,13.50
2010,08,13,02,46,13.50
2010,08,13,02,47,13.50
2010,08,13,02,48,13.50
2010,08,13,02,49,13.50
2010,08,13,02,50,13.50
2010,08,13,02,51,13.50
2010,08,13,02,52,13.50
2010,08,13,02,53,13.50
2010,08,13,02,54,13.50
2010,08,13,02,55,13.40
2010,08,13,02,56,13.40
2010,08,13,02,57,13.40
2010,08,13,02,58,13.40
2010,08,13,02,59,13.30
2010,08,13,03,00,13.30
2010,08,13,03,01,13.30
2010,08,13,03,02,13.30
2010,08,13,03,03,13.30
2010,08,13,03,04,13.30
2010,08,13,03,05,13.30
2010,08,13,03,06,13.30
2010,08,13,03,07,13.30
2010,08,13,03,08,13.30
2010,08,13,03,09,13.30
2010,08,13,03,10,13.30
2010,08,13,03,11,13.30
2010,08,13,03,12,13.30
2010,08,13,03,13,13.30
2010,08,13,03,14,13.40
2010,08,13,03,15,13.40
2010,08,13,03,16,13.30
2010,08,13,03,17,13.30
2010,08,13,03,18,13.30
2010,08,13,03,19,13.30
2010,08,13,03,20,13.30
2010,08,13,03,21,13.30
2010,08,13,03,22,13.30
2010,08,13,03,23,13.30
2010,08,13,03,24,13.30
2010,08,13,03,25,13.30
2010,08,13,03,26,13.30
2010,08,13,03,27,13.20
2010,08,13,03,28,13.20
2010,08,13,03,29,13.20
2010,08,13,03,30,13.20
2010,08,13,03,31,13.20
2010,08,13,03,32,13.20
2010,08,13,03,33,13.20
2010,08,13,03,34,13.20
2010,08,13,03,35,13.20
2010,08,13,03,36,13.20
2010,08,13,03,37,13.20
2010,08,13,03,38,13.20
2010,08,13,03,39,13.20
2010,08,13,03,40,13.20
2010,08,13,03,41,13.20
2010,08,13,03,42,13.20
2010,08,13,03,43,13.10
2010,08,13,03,44,13.10
2010,08,13,03,45,13.10
2010,08,13,03,46,13.10
2010,08,13,03,47,13.10
2010,08,13,03,48,13.10
2010,08,13,03,49,13.10
2010,08,13,03,50,13.10
2010,08,13,03,51,13.00
2010,08,13,03,52,13.00
2010,08,13,03,53,13.00
2010,08,13,03,54,13.00
2010,08,13,03,55,13.00
2010,08,13,03,56,13.00
2010,08,13,03,57,13.00
2010,08,13,03,58,13.00
2010,08,13,03,59,12.90
2010,08,13,04,00,12.90
2010,08,13,04,01,12.90
2010,08,13,04,02,12.90
2010,08,13,04,03,12.90
2010,08,13,04,04,12.90
2010,08,13,04,05,12.90
2010,08,13,04,06,12.90
2010,08,13,04,07,12.80
2010,08,13,04,08,12.80
2010,08,13,04,09,12.80
2010,08,13,04,10,12.80
2010,08,13,04,11,12.80
2010,08,13,04,12,12.80
2010,08,13,04,13,12.80
2010,08,13,04,14,12.80
2010,08,13,04,15,12.80
2010,08,13,04,16,12.80
2010,08,13,04,17,12.80
2010,08,13,04,18,12.80
2010,08,13,04,19,12.80
2010,08,13,04,20,12.80
2010,08,13,04,21,12.80
2010,08,13,04,22,12.80
2010,08,13,04,23,12.80
2010,08,13,04,24,12.80
2010,08,13,04,25,12.80
2010,08,13,04,26,12.80
2010,08,13,04,27,12.80
2010,08,13,04,28,12.80
2010,08,13,04,29,12.80
2010,08,13,04,30,12.80
2010,08,13,04,31,12.80
2010,08,13,04,32,12.80
2010,08,13,04,33,12.80
2010,08,13,04,34,12.70
2010,08,13,04,35,12.70
2010,08,13,04,36,12.70
2010,08,13,04,37,12.60
2010,08,13,04,38,12.60
2010,08,13,04,39,12.60
2010,08,13,04,40,12.60
2010,08,13,04,41,12.60
2010,08,13,04,42,12.60
2010,08,13,04,43,12.50
2010,08,13,04,44,12.50
2010,08,13,04,45,12.50
2010,08,13,04,46,12.50
2010,08,13,04,47,12.50
2010,08,13,04,48,12.50
2010,08,13,04,49,12.50
2010,08,13,04,50,12.50
2010,08,13,04,51,12.50
2010,08,13,04,52,12.50
2010,08,13,04,53,12.50
2010,08,13,04,54,12.50
2010,08,13,04,55,12.50
2010,08,13,04,56,12.50
2010,08,13,04,57,12.50
2010,08,13,04,58,12.50
2010,08,13,04,59,12.50
2010,08,13,05,00,12.50
2010,08,13,05,01,12.50
2010,08,13,05,02,12.50
2010,08,13,05,03,12.50
2010,08,13,05,04,12.50
2010,08,13,05,05,12.50
2010,08,13,05,06,12.50
2010,08,13,05,07,12.50
2010,08,13,05,08,12.40
2010,08,13,05,09,12.40
2010,08,13,05,10,12.40
2010,08,13,05,11,12.30
2010,08,13,05,12,12.30
2010,08,13,05,13,12.30
2010,08,13,05,14,12.30
2010,08,13,05,15,12.30
2010,08,13,05,16,12.30
2010,08,13,05,17,12.30
2010,08,13,05,18,12.30
2010,08,13,05,19,12.20
2010,08,13,05,20,12.20
2010,08,13,05,21,12.20
2010,08,13,05,22,12.20
2010,08,13,05,23,12.10
2010,08,13,05,24,12.10
2010,08,13,05,25,12.10
2010,08,13,05,26,12.10
2010,08,13,05,27,12.10
2010,08,13,05,28,12.10
2010,08,13,05,29,12.00
2010,08,13,05,30,12.00
2010,08,13,05,31,12.00
2010,08,13,05,32,12.00
2010,08,13,05,33,12.00
2010,08,13,05,34,12.00
2010,08,13,05,35,12.00
2010,08,13,05,36,12.00
2010,08,13,05,37,12.10
2010,08,13,05,38,12.10
2010,08,13,05,39,12.10
2010,08,13,05,40,12.10
2010,08,13,05,41,12.10
2010,08,13,05,42,12.00
2010,08,13,05,43,12.00
2010,08,13,05,44,12.00
2010,08,13,05,45,12.00
2010,08,13,05,46,12.00
2010,08,13,05,47,11.90
2010,08,13,05,48,11.90
2010,08,13,05,49,11.90
2010,08,13,05,50,11.90
2010,08,13,05,51,11.90
2010,08,13,05,52,11.90
2010,08,13,05,53,11.90
2010,08,13,05,54,11.90
2010,08,13,05,55,11.90
2010,08,13,05,56,12.00
2010,08,13,05,57,12.00
2010,08,13,05,58,12.10
2010,08,13,05,59,12.10
2010,08,13,06,00,12.20
2010,08,13,06,01,12.20
2010,08,13,06,02,12.20
2010,08,13,06,03,12.30
2010,08,13,06,04,12.30
2010,08,13,06,05,12.30
2010,08,13,06,06,12.30
2010,08,13,06,07,12.20
2010,08,13,06,08,12.20
2010,08,13,06,09,12.20
2010,08,13,06,10,12.10
2010,08,13,06,11,12.10
2010,08,13,06,12,12.00
2010,08,13,06,13,12.00
2010,08,13,06,14,12.00
2010,08,13,06,15,12.00
2010,08,13,06,16,11.90
2010,08,13,06,17,11.90
2010,08,13,06,18,11.90
2010,08,13,06,19,11.90
2010,08,13,06,20,11.90
2010,08,13,06,21,11.90
2010,08,13,06,22,11.90
2010,08,13,06,23,11.90
2010,08,13,06,24,12.00
2010,08,13,06,25,12.00
2010,08,13,06,26,12.00
2010,08,13,06,27,12.00
2010,08,13,06,28,12.00
2010,08,13,06,29,12.00
2010,08,13,06,30,12.00
2010,08,13,06,31,12.00
2010,08,13,06,32,12.00
2010,08,13,06,33,12.10
2010,08,13,06,34,12.10
2010,08,13,06,35,12.10
2010,08,13,06,36,12.10
2010,08,13,06,37,12.10
2010,08,13,06,38,12.20
2010,08,13,06,39,12.10
2010,08,13,06,40,12.10
2010,08,13,06,41,12.10
2010,08,13,06,42,12.10
2010,08,13,06,43,12.20
2010,08,13,06,44,12.20
2010,08,13,06,45,12.30
2010,08,13,06,46,12.30
2010,08,13,06,47,12.30
2010,08,13,06,48,12.30
2010,08,13,06,49,12.30
2010,08,13,06,50,12.30
2010,08,13,06,51,12.40
2010,08,13,06,52,12.50
2010,08,13,06,53,12.50
2010,08,13,06,54,12.50
2010,08,13,06,55,12.60
2010,08,13,06,56,12.60
2010,08,13,06,57,12.60
2010,08,13,06,58,12.70
2010,08,13,06,59,12.70
2010,08,13,07,00,12.70
2010,08,13,07,01,12.70
2010,08,13,07,02,12.70
2010,08,13,07,03,12.70
2010,08,13,07,04,12.80
2010,08,13,07,05,12.80
2010,08,13,07,06,12.80
2010,08,13,07,07,12.80
2010,08,13,07,08,12.80
2010,08,13,07,09,12.90
2010,08,13,07,10,12.90
2010,08,13,07,11,13.00
2010,08,13,07,12,13.00
2010,08,13,07,13,13.10
2010,08,13,07,14,13.10
2010,08,13,07,15,13.20
2010,08,13,07,16,13.30
2010,08,13,07,17,13.40
2010,08,13,07,18,13.50
2010,08,13,07,19,13.50
2010,08,13,07,20,13.60
2010,08,13,07,21,13.60
2010,08,13,07,22,13.70
2010,08,13,07,23,13.70
2010,08,13,07,24,13.70
2010,08,13,07,25,13.70
2010,08,13,07,26,13.70
2010,08,13,07,27,13.70
2010,08,13,07,28,13.70
2010,08,13,07,29,13.70
2010,08,13,07,30,13.80
2010,08,13,07,31,13.80
2010,08,13,07,32,13.90
2010,08,13,07,33,13.90
2010,08,13,07,34,14.00
2010,08,13,07,35,14.00
2010,08,13,07,36,14.10
2010,08,13,07,37,14.20
2010,08,13,07,38,14.20
2010,08,13,07,39,14.30
2010,08,13,07,40,14.40
2010,08,13,07,41,14.50
2010,08,13,07,42,14.70
2010,08,13,07,43,14.80
2010,08,13,07,44,15.00
2010,08,13,07,45,15.10
2010,08,13,07,46,15.20
2010,08,13,07,47,15.30
2010,08,13,07,48,15.30
2010,08,13,07,49,15.50
2010,08,13,07,50,15.50
2010,08,13,07,51,15.60
2010,08,13,07,52,15.70
2010,08,13,07,53,15.80
2010,08,13,07,54,15.90
2010,08,13,07,55,16.00
2010,08,13,07,56,16.10
2010,08,13,07,57,16.20
2010,08,13,07,58,16.30
2010,08,13,07,59,16.40
2010,08,13,08,00,16.50
2010,08,13,08,01,16.60
2010,08,13,08,02,16.70
2010,08,13,08,03,16.80
2010,08,13,08,04,16.90
2010,08,13,08,05,16.90
2010,08,13,08,06,17.00
2010,08,13,08,07,17.10
2010,08,13,08,08,17.20
2010,08,13,08,09,17.30
2010,08,13,08,10,17.40
2010,08,13,08,11,17.50
2010,08,13,08,12,17.60
2010,08,13,08,13,17.70
2010,08,13,08,14,17.80
2010,08,13,08,15,17.90
2010,08,13,08,16,18.00
2010,08,13,08,17,18.10
2010,08,13,08,18,18.20
2010,08,13,08,19,18.40
2010,08,13,08,20,18.50
2010,08,13,08,21,18.60
2010,08,13,08,22,18.80
2010,08,13,08,23,18.90
2010,08,13,08,24,18.90
2010,08,13,08,25,19.00
2010,08,13,08,26,19.10
2010,08,13,08,27,19.10
2010,08,13,08,28,19.10
2010,08,13,08,29,19.10
2010,08,13,08,30,19.10
2010,08,13,08,31,19.20
2010,08,13,08,32,19.30
2010,08,13,08,33,19.30
2010,08,13,08,34,19.40
2010,08,13,08,35,19.40
2010,08,13,08,36,19.50
2010,08,13,08,37,19.60
2010,08,13,08,38,19.60
2010,08,13,08,39,19.60
2010,08,13,08,40,19.70
2010,08,13,08,41,19.70
2010,08,13,08,42,19.70
2010,08,13,08,43,19.80
2010,08,13,08,44,19.80
2010,08,13,08,45,19.80
2010,08,13,08,46,19.80
2010,08,13,08,47,19.80
2010,08,13,08,48,19.70
2010,08,13,08,49,19.70
2010,08,13,08,50,19.70
2010,08,13,08,51,19.70
2010,08,13,08,52,19.70
2010,08,13,08,53,19.70
2010,08,13,08,54,19.70
2010,08,13,08,55,19.70
2010,08,13,08,56,19.60
2010,08,13,08,57,19.60
2010,08,13,08,58,19.70
2010,08,13,08,59,19.80
2010,08,13,09,00,19.80
2010,08,13,09,01,19.90
2010,08,13,09,02,19.90
2010,08,13,09,03,19.90
2010,08,13,09,04,19.90
2010,08,13,09,05,20.00
2010,08,13,09,06,20.10
2010,08,13,09,07,20.20
2010,08,13,09,08,20.30
2010,08,13,09,09,20.40
2010,08,13,09,10,20.50
2010,08,13,09,11,20.50
2010,08,13,09,12,20.50
2010,08,13,09,13,20.50
2010,08,13,09,14,20.60
2010,08,13,09,15,20.60
2010,08,13,09,16,20.60
2010,08,13,09,17,20.70
2010,08,13,09,18,20.70
2010,08,13,09,19,20.80
2010,08,13,09,20,20.80
2010,08,13,09,21,20.80
2010,08,13,09,22,20.80
2010,08,13,09,23,20.80
2010,08,13,09,24,20.80
2010,08,13,09,25,20.90
2010,08,13,09,26,20.90
2010,08,13,09,27,20.90
2010,08,13,09,28,21.00
2010,08,13,09,29,21.00
2010,08,13,09,30,21.10
2010,08,13,09,31,21.10
2010,08,13,09,32,21.20
2010,08,13,09,33,21.20
2010,08,13,09,34,21.20
2010,08,13,09,35,21.20
2010,08,13,09,36,21.30
2010,08,13,09,37,21.30
2010,08,13,09,38,21.20
2010,08,13,09,39,21.10
2010,08,13,09,40,21.10
2010,08,13,09,41,21.00
2010,08,13,09,42,21.10
2010,08,13,09,43,21.10
2010,08,13,09,44,21.20
2010,08,13,09,45,21.20
2010,08,13,09,46,21.30
2010,08,13,09,47,21.30
2010,08,13,09,48,21.30
2010,08,13,09,49,21.30
2010,08,13,09,50,21.40
2010,08,13,09,51,21.40
2010,08,13,09,52,21.40
2010,08,13,09,53,21.50
2010,08,13,09,54,21.60
2010,08,13,09,55,21.70
2010,08,13,09,56,21.80
2010,08,13,09,57,21.90
2010,08,13,09,58,22.00
2010,08,13,09,59,22.10
2010,08,13,10,00,22.10
2010,08,13,10,01,22.10
2010,08,13,10,02,22.10
2010,08,13,10,03,22.10
2010,08,13,10,04,22.00
2010,08,13,10,05,22.00
2010,08,13,10,06,22.10
2010,08,13,10,07,22.10
2010,08,13,10,08,22.10
2010,08,13,10,09,22.10
2010,08,13,10,10,22.00
2010,08,13,10,11,22.00
2010,08,13,10,12,22.00
2010,08,13,10,13,22.00
2010,08,13,10,14,22.00
2010,08,13,10,15,22.10
2010,08,13,10,16,22.20
2010,08,13,10,17,22.30
2010,08,13,10,18,22.40
2010,08,13,10,19,22.40
2010,08,13,10,20,22.40
2010,08,13,10,21,22.50
2010,08,13,10,22,22.60
2010,08,13,10,23,22.60
2010,08,13,10,24,22.60
2010,08,13,10,25,22.60
2010,08,13,10,26,22.50
2010,08,13,10,27,22.50
2010,08,13,10,28,22.40
2010,08,13,10,29,22.40
2010,08,13,10,30,22.40
2010,08,13,10,31,22.40
2010,08,13,10,32,22.50
2010,08,13,10,33,22.40
2010,08,13,10,34,22.40
2010,08,13,10,35,22.40
2010,08,13,10,36,22.40
2010,08,13,10,37,22.40
2010,08,13,10,38,22.40
2010,08,13,10,39,22.40
2010,08,13,10,40,22.40
2010,08,13,10,41,22.30
2010,08,13,10,42,22.20
2010,08,13,10,43,22.30
2010,08,13,10,44,22.30
2010,08,13,10,45,22.40
2010,08,13,10,46,22.60
2010,08,13,10,47,22.60
2010,08,13,10,48,22.70
2010,08,13,10,49,22.60
2010,08,13,10,50,22.60
2010,08,13,10,51,22.60
2010,08,13,10,52,22.70
2010,08,13,10,53,22.70
2010,08,13,10,54,22.70
2010,08,13,10,55,22.70
2010,08,13,10,56,22.70
2010,08,13,10,57,22.70
2010,08,13,10,58,22.80
2010,08,13,10,59,22.80
2010,08,13,11,00,22.90
2010,08,13,11,01,22.90
2010,08,13,11,02,22.90
2010,08,13,11,03,22.90
2010,08,13,11,04,22.90
2010,08,13,11,05,22.80
2010,08,13,11,06,22.80
2010,08,13,11,07,22.80
2010,08,13,11,08,22.90
2010,08,13,11,09,22.90
2010,08,13,11,10,22.90
2010,08,13,11,11,22.90
2010,08,13,11,12,22.90
2010,08,13,11,13,23.00
2010,08,13,11,14,23.10
2010,08,13,11,15,23.20
2010,08,13,11,16,23.20
2010,08,13,11,17,23.20
2010,08,13,11,18,23.10
2010,08,13,11,19,23.00
2010,08,13,11,20,22.90
2010,08,13,11,21,22.90
2010,08,13,11,22,22.90
2010,08,13,11,23,22.80
2010,08,13,11,24,22.90
2010,08,13,11,25,22.90
2010,08,13,11,26,23.10
2010,08,13,11,27,23.20
2010,08,13,11,28,23.30
2010,08,13,11,29,23.40
2010,08,13,11,30,23.50
2010,08,13,11,31,23.60
2010,08,13,11,32,23.70
2010,08,13,11,33,23.80
2010,08,13,11,34,23.80
2010,08,13,11,35,23.90
2010,08,13,11,36,23.80
2010,08,13,11,37,23.70
2010,08,13,11,38,23.70
2010,08,13,11,39,23.70
2010,08,13,11,40,23.70
2010,08,13,11,41,23.80
2010,08,13,11,42,23.80
2010,08,13,11,43,23.80
2010,08,13,11,44,23.90
2010,08,13,11,45,24.00
2010,08,13,11,46,24.10
2010,08,13,11,47,24.00
2010,08,13,11,48,23.90
2010,08,13,11,49,24.00
2010,08,13,11,50,24.10
2010,08,13,11,51,24.20
2010,08,13,11,52,24.40
2010,08,13,11,53,24.50
2010,08,13,11,54,24.60
2010,08,13,11,55,24.70
2010,08,13,11,56,24.80
2010,08,13,11,57,24.80
2010,08,13,11,58,24.90
2010,08,13,11,59,25.00
2010,08,13,12,00,25.10
2010,08,13,12,01,25.10
2010,08,13,12,02,25.10
2010,08,13,12,03,25.00
2010,08,13,12,04,24.90
2010,08,13,12,05,24.80
2010,08,13,12,06,24.60
2010,08,13,12,07,24.50
2010,08,13,12,08,24.40
2010,08,13,12,09,24.40
2010,08,13,12,10,24.50
2010,08,13,12,11,24.70
2010,08,13,12,12,24.80
2010,08,13,12,13,25.00
2010,08,13,12,14,25.10
2010,08,13,12,15,25.30
2010,08,13,12,16,25.40
2010,08,13,12,17,25.60
2010,08,13,12,18,25.80
2010,08,13,12,19,25.90
2010,08,13,12,20,25.90
2010,08,13,12,21,26.00
2010,08,13,12,22,26.00
2010,08,13,12,23,26.10
2010,08,13,12,24,26.10
2010,08,13,12,25,26.10
2010,08,13,12,26,26.10
2010,08,13,12,27,26.20
2010,08,13,12,28,26.10
2010,08,13,12,29,26.00
2010,08,13,12,30,26.00
2010,08,13,12,31,26.00
2010,08,13,12,32,26.00
2010,08,13,12,33,26.10
2010,08,13,12,34,26.10
2010,08,13,12,35,26.10
2010,08,13,12,36,26.20
2010,08,13,12,37,26.10
2010,08,13,12,38,26.10
2010,08,13,12,39,26.20
2010,08,13,12,40,26.30
2010,08,13,12,41,26.30
2010,08,13,12,42,26.40
2010,08,13,12,43,26.40
2010,08,13,12,44,26.50
2010,08,13,12,45,26.60
2010,08,13,12,46,26.60
2010,08,13,12,47,26.60
2010,08,13,12,48,26.60
2010,08,13,12,49,26.60
2010,08,13,12,50,26.70
2010,08,13,12,51,26.70
2010,08,13,12,52,26.70
2010,08,13,12,53,26.80
2010,08,13,12,54,26.70
2010,08,13,12,55,26.70
2010,08,13,12,56,26.70
2010,08,13,12,57,26.80
2010,08,13,12,58,26.80
2010,08,13,12,59,26.90
2010,08,13,13,00,27.10
2010,08,13,13,01,27.00
2010,08,13,13,02,26.90
2010,08,13,13,03,26.70
2010,08,13,13,04,26.60
2010,08,13,13,05,26.70
2010,08,13,13,06,26.70
2010,08,13,13,07,26.70
2010,08,13,13,08,26.70
2010,08,13,13,09,26.80
2010,08,13,13,10,26.70
2010,08,13,13,11,26.60
2010,08,13,13,12,26.60
2010,08,13,13,13,26.70
2010,08,13,13,14,26.60
2010,08,13,13,15,26.60
2010,08,13,13,16,26.50
2010,08,13,13,17,26.50
2010,08,13,13,18,26.60
2010,08,13,13,19,26.60
2010,08,13,13,20,26.60
2010,08,13,13,21,26.60
2010,08,13,13,22,26.60
2010,08,13,13,23,26.60
2010,08,13,13,24,26.60
2010,08,13,13,25,26.60
2010,08,13,13,26,26.60
2010,08,13,13,27,26.60
2010,08,13,13,28,26.60
2010,08,13,13,29,26.70
2010,08,13,13,30,26.70
2010,08,13,13,31,26.80
2010,08,13,13,32,27.00
2010,08,13,13,33,27.10
2010,08,13,13,34,27.30
2010,08,13,13,35,27.50
2010,08,13,13,36,27.70
2010,08,13,13,37,27.90
2010,08,13,13,38,28.10
2010,08,13,13,39,28.20
2010,08,13,13,40,28.30
2010,08,13,13,41,28.20
2010,08,13,13,42,28.10
2010,08,13,13,43,28.00
2010,08,13,13,44,28.00
2010,08,13,13,45,28.10
2010,08,13,13,46,28.00
2010,08,13,13,47,28.00
2010,08,13,13,48,27.90
2010,08,13,13,49,27.90
2010,08,13,13,50,27.80
2010,08,13,13,51,27.70
2010,08,13,13,52,27.70
2010,08,13,13,53,27.70
2010,08,13,13,54,27.80
2010,08,13,13,55,27.80
2010,08,13,13,56,27.80
2010,08,13,13,57,27.90
2010,08,13,13,58,27.90
2010,08,13,13,59,27.90
2010,08,13,14,00,27.80
2010,08,13,14,01,27.70
2010,08,13,14,02,27.70
2010,08,13,14,03,27.80
2010,08,13,14,04,27.80
2010,08,13,14,05,27.90
2010,08,13,14,06,27.90
2010,08,13,14,07,27.90
2010,08,13,14,08,27.80
2010,08,13,14,09,27.80
2010,08,13,14,10,27.80
2010,08,13,14,11,27.70
2010,08,13,14,12,27.60
2010,08,13,14,13,27.50
2010,08,13,14,14,27.40
2010,08,13,14,15,27.30
2010,08,13,14,16,27.30
2010,08,13,14,17,27.30
2010,08,13,14,18,27.30
2010,08,13,14,19,27.30
2010,08,13,14,20,27.50
2010,08,13,14,21,27.60
2010,08,13,14,22,27.60
2010,08,13,14,23,27.50
2010,08,13,14,24,27.30
2010,08,13,14,25,27.30
2010,08,13,14,26,27.30
2010,08,13,14,27,27.30
2010,08,13,14,28,27.30
2010,08,13,14,29,27.40
2010,08,13,14,30,27.40
2010,08,13,14,31,27.50
2010,08,13,14,32,27.50
2010,08,13,14,33,27.60
2010,08,13,14,34,27.70
2010,08,13,14,35,27.90
2010,08,13,14,36,28.00
2010,08,13,14,37,28.30
2010,08,13,14,38,28.30
2010,08,13,14,39,28.30
2010,08,13,14,40,28.20
2010,08,13,14,41,28.10
2010,08,13,14,42,28.00
2010,08,13,14,43,28.00
2010,08,13,14,44,28.10
2010,08,13,14,45,28.10
2010,08,13,14,46,28.10
2010,08,13,14,47,28.20
2010,08,13,14,48,28.20
2010,08,13,14,49,28.30
2010,08,13,14,50,28.40
2010,08,13,14,51,28.40
2010,08,13,14,52,28.40
2010,08,13,14,53,28.40
2010,08,13,14,54,28.50
2010,08,13,14,55,28.60
2010,08,13,14,56,28.70
2010,08,13,14,57,28.70
2010,08,13,14,58,28.80
2010,08,13,14,59,28.90
2010,08,13,15,00,28.90
2010,08,13,15,01,28.90
2010,08,13,15,02,29.00
2010,08,13,15,03,29.10
2010,08,13,15,04,29.20
2010,08,13,15,05,29.20
2010,08,13,15,06,29.20
2010,08,13,15,07,29.20
2010,08,13,15,08,29.20
2010,08,13,15,09,29.20
2010,08,13,15,10,29.30
2010,08,13,15,11,29.30
2010,08,13,15,12,29.20
2010,08,13,15,13,29.20
2010,08,13,15,14,29.20
2010,08,13,15,15,29.20
2010,08,13,15,16,29.20
2010,08,13,15,17,29.10
2010,08,13,15,18,29.10
2010,08,13,15,19,29.10
2010,08,13,15,20,29.20
2010,08,13,15,21,29.20
2010,08,13,15,22,29.30
2010,08,13,15,23,29.30
2010,08,13,15,24,29.30
2010,08,13,15,25,29.30
2010,08,13,15,26,29.20
2010,08,13,15,27,29.20
2010,08,13,15,28,29.30
2010,08,13,15,29,29.30
2010,08,13,15,30,29.20
2010,08,13,15,31,29.30
2010,08,13,15,32,29.30
2010,08,13,15,33,29.30
2010,08,13,15,34,29.20
2010,08,13,15,35,29.20
2010,08,13,15,36,29.30
2010,08,13,15,37,29.30
2010,08,13,15,38,29.30
2010,08,13,15,39,29.40
2010,08,13,15,40,29.40
2010,08,13,15,41,29.50
2010,08,13,15,42,29.50
2010,08,13,15,43,29.60
2010,08,13,15,44,29.70
2010,08,13,15,45,29.60
2010,08,13,15,46,29.70
2010,08,13,15,47,29.80
2010,08,13,15,48,29.80
2010,08,13,15,49,29.80
2010,08,13,15,50,29.80
2010,08,13,15,51,29.80
2010,08,13,15,52,29.90
2010,08,13,15,53,29.80
2010,08,13,15,54,29.80
2010,08,13,15,55,29.80
2010,08,13,15,56,29.70
2010,08,13,15,57,29.70
2010,08,13,15,58,29.80
2010,08,13,15,59,29.90
2010,08,13,16,00,29.90
2010,08,13,16,01,30.10
2010,08,13,16,02,30.10
2010,08,13,16,03,30.10
2010,08,13,16,04,30.00
2010,08,13,16,05,29.90
2010,08,13,16,06,29.90
2010,08,13,16,07,29.80
2010,08,13,16,08,29.80
2010,08,13,16,09,29.80
2010,08,13,16,10,29.80
2010,08,13,16,11,29.80
2010,08,13,16,12,29.80
2010,08,13,16,13,29.70
2010,08,13,16,14,29.70
2010,08,13,16,15,29.70
2010,08,13,16,16,29.80
2010,08,13,16,17,29.80
2010,08,13,16,18,29.80
2010,08,13,16,19,29.80
2010,08,13,16,20,29.80
2010,08,13,16,21,29.70
2010,08,13,16,22,29.60
2010,08,13,16,23,29.60
2010,08,13,16,24,29.60
2010,08,13,16,25,29.70
2010,08,13,16,26,29.80
2010,08,13,16,27,29.90
2010,08,13,16,28,29.90
2010,08,13,16,29,29.80
2010,08,13,16,30,29.90
2010,08,13,16,31,30.00
2010,08,13,16,32,30.10
2010,08,13,16,33,30.20
2010,08,13,16,34,30.20
2010,08,13,16,35,30.30
2010,08,13,16,36,30.20
2010,08,13,16,37,30.20
2010,08,13,16,38,30.10
2010,08,13,16,39,30.00
2010,08,13,16,40,29.90
2010,08,13,16,41,29.80
2010,08,13,16,42,29.90
2010,08,13,16,43,29.90
2010,08,13,16,44,29.90
2010,08,13,16,45,29.90
2010,08,13,16,46,30.00
2010,08,13,16,47,30.10
2010,08,13,16,48,30.00
2010,08,13,16,49,29.90
2010,08,13,16,50,29.90
2010,08,13,16,51,29.80
2010,08,13,16,52,29.90
2010,08,13,16,53,30.00
2010,08,13,16,54,30.10
2010,08,13,16,55,30.10
2010,08,13,16,56,30.10
2010,08,13,16,57,30.00
2010,08,13,16,58,29.90
2010,08,13,16,59,29.90
2010,08,13,17,00,29.80
2010,08,13,17,01,29.80
2010,08,13,17,02,29.70
2010,08,13,17,03,29.70
2010,08,13,17,04,29.70
2010,08,13,17,05,29.80
2010,08,13,17,06,29.80
2010,08,13,17,07,29.80
2010,08,13,17,08,29.80
2010,08,13,17,09,29.80
2010,08,13,17,10,29.90
2010,08,13,17,11,29.90
2010,08,13,17,12,29.90
2010,08,13,17,13,29.90
2010,08,13,17,14,30.00
2010,08,13,17,15,30.10
2010,08,13,17,16,30.10
2010,08,13,17,17,30.10
2010,08,13,17,18,30.10
2010,08,13,17,19,30.20